Location: Laverne
(36.7100°N, 99.8930°W)
Time: 16:58:25
(UTC-06:00)

Meteor 2-14 Rocket - Pass Details

Date: 19 October 2017
Orbit: 937 x 957 km, 82.5° (Epoch: 20 November)

Event Time Altitude Azimuth Distance (km) Brightness Sun altitude
Rises 06:39:27 0° 350° (N) 3,603 7.4 -15.0°
Reaches altitude 10° 06:41:57 10° 349° (N) 2,655 6.7 -14.5°
Maximum altitude 06:48:00 75° 265° (W) 971 4.3 -13.3°
Drops below altitude 10° 06:54:01 10° 181° (S) 2,646 6.8 -12.1°
Sets 06:56:30 0° 180° (S) 3,589 7.5 -11.6°
